ONEWEB-0409, 50488

Orbit data source: Space-Track

ONEWEB-0409, 50488 is a payload satellite owned by One Web (NAA) (UK) in LEO that was launched on Mon, 27 Dec 2021 UTC via a SOYUZ-2-1B launch vehicle from the Tyuratam Missile And Space Complex (TTMTR). Payload-class satellites include a variety of spacecraft equipped with specific instruments for various scientific and technological missions. These include communications satellites like Starlink; space stations such as the ISS; scientific satellites like the Hubble; Earth observation satellites from companies like Planet Labs, Umbra, and HawkEye 360; GPS; miniature CubeSats for education and research; and military/defense satellites.

Loading next visibility...
Identifier
50488, 2021-132V
Orbit
LEO
Country
Flag of UKUK
Related business
Manufacturer
One Web
Mission
Operational Commercial Communications
Bus & Motor
ARROW, Unknown motor
Mass
148 kg wet, ~140 kg dry
Launch date (UTC)
2021-12-27 (4 years ago)
Launch vehicle
SOYUZ-2-1B
Launch site
Tyuratam Missile And Space Complex (TTMTR)
Object type
Payload
Rocket body
Debris
Shape & HBR
Trap Box + 2 Pan, 6.7 m
Radar Cross Section
3.464 m², Large (>1 m²)

Expand to show TLE details & history
Last TLE update: 2 days ago

TLE from 2 days ago
0 ONEWEB-0409
1 50488U 21132V   26171.00018107 -.00000453  00000-0 -13144-2 0  9997
2 50488  87.8888  20.4957 0002097  85.8627 274.2740 13.11416948215951
Epoch: 2026-06-20T00:00Z
TLE epoch observation values (Epoch: 2026-06-20T00:00:15.644Z)
Latitude
-0.00008°
Longitude
112.20942°
Altitude
1,220.453 km
Speed
7.244 km/s
True Right ascension
01h 21m 58s
True Declination
0° 00' 00"
Sunlit
Object was in daylight at epoch
Visualization orbit readout
Latitude
Unknown
Longitude
Unknown
Altitude
Unknown
Speed
Unknown
Apparent Right ascension
Unknown
Apparent Declination
Unknown
Sunlit
N/A
Visualization observer readout
Local Sidereal Time
21:24:00
Azimuth
Unknown
Elevation
Unknown
Doppler factor
Unknown
Orbital elements
Apogee altitude
1,216.393 km
Perigee altitude
1,213.209 km
Semi-major axis
7,592.938 km
Eccentricity
0.00021
Inclination
87.8888°
RAAN
20.4957°
Arg. of periapsis
85.8627°
True anomaly
274.25004°
Mean anomaly
274.274°
Eccentric anomaly
274.26202°
Mean motion
3.28041 °/min
Orbital period
109.74 mins
BSTAR
-0.0013144
Loading maneuver chart data...
Computing Atmospheric mass density...
Loading historical data...
Loading historical data...
Loading historical data...
Loading historical data...
Loading historical data...
Loading historical data...
Loading historical data...

Documentation

Showing up to 5 results
|